Tracking 19794 objects as of 23-Jul-2019
HD Live streaming from Space Station
objects crossing your sky now

SCOUT G-1 DEB

Track SCOUT G-1 DEB now!
10-day predictions


NORAD ID: 19181
Int'l Code: 1988-033G
Perigee: 998.0 km
Apogee: 1,376.3 km
Inclination: 89.9 °
Period: 109.0 minutes
Semi major axis: 7558 km
RCS: 0.0549 m2 (small)
Launch date: April 26, 1988
Source: United States (US)
Launch site: AIR FORCE WESTERN TEST RANGE (AFWTR)

Note: This is SATELLITE DEBRIS
aabbcc
Your satellite tracking list
Your tracking list is empty




NASA's NSSDC Master Catalog

Two Line Element Set (TLE):
1 19181U 88033G   19202.31011918 +.00000163 +00000-0 +32187-3 0  9994
2 19181 089.8863 312.9445 0250301 215.2719 213.8255 13.21229504504071
Source of the keplerian elements: AFSPC